Погода в Очеретино

Украина / Донецкая область     48°14′33″N   37°36′37″E
темп.,
°C
ветер,
м/с
пор.,
м/с
влажн.,
%
обл.,
%
осадки,
мм/ч
давл.,
гПа
погр.,
м
13 мая, чт
чт1300:00+7юв48964 0.1 1014186
03:00+7ююв349584 0.1 101452
06:00+8ююв239722 0.0 101480
09:00+14ю34693 0.0 1013633
12:00+18ю355713 0.0 10131380
15:00+21ююз4650100 0.0 10131656
18:00+19ю4666100 0.0 1013241
21:00+15ююв337720 0.0 101320
14 мая, пт
пт1400:00+14вюв358356 0.0 101372
03:00+13вюв3893100 0.1 1012135
06:00+14вюв41288100 0.0 1012292
09:00+19юв61169100 0.1 1011493
12:00+22юв565798 0.0 1011889
15:00+26ю68455 0.0 10101489
18:00+23ю585764 0.0 1010339
21:00+17ю47742 0.0 1011105
15 мая, сб
сб1500:00+15юз48790 0.1 1012123
03:00+14зюз3784100 0.1 1013126
06:00+14з358418 0.0 1013103
09:00+20з225613 0.0 1014574
12:00+23юз34467 0.0 10151351
15:00+24юз344418 0.0 10141975
18:00+23з2349100 0.0 10141167
21:00+17с2264100 0.0 101417
16 мая, вс
вс1600:00+16ссв2267100 0.0 101421
03:00+15св347086 0.0 101455
06:00+15св48779 0.0 1013141
09:00+21св686038 0.0 1013578
12:00+25св56535 0.0 10111292
15:00+27св665114 0.0 10101917
18:00+25всв695330 0.0 1008458
21:00+19всв357025 0.0 100855
17 мая, пн
пн1700:00+17всв467595 0.0 100799
03:00+16вюв4127121 0.0 1006215
06:00+16вюв41166100 0.0 1007274
09:00+21вюв7104850 0.0 1006570
12:00+25ююв794488 0.0 10061155
15:00+26ююв56455 0.0 10061554
18:00+25ююв585538 0.0 1006555
21:00+18ю5109178 0.0 1008307